Weather in Trbovlje

Slovenia     46°09′21″N   15°03′21″E
temp.,
°C
wind,
m/s
gust,
m/s
humid.,
%
clouds,
%
prec.,
mm/h
press.,
hPa
HPBL,
m
17 april, sat
sat1723:00+2ne2272100 0.0 102225
02:000nne217683 0.0 102217
05:00−1nne1186100 0.0 102113
08:00+2ene1272100 0.0 1020229
11:00+8e235199 0.0 10181320
14:00+9ese3549100 0.0 10161474
17:00+8e4557100 0.0 10161154
20:00+3e1287100 0.0 101735
18 april, sun
sun1823:00+4ene2490100 0.0 1018526
02:00+2nne2397100 0.1 1018156
05:00+2nne1296100 0.0 1017156
08:00+4ne2388100 0.0 1017397
11:00+7ene2370100 0.1 1017985
14:00+7ese3367100 0.4 10171044
17:00+8ese2368100 0.4 1016986
20:00+5e1186100 0.6 101716
19 april, mon
mon1923:00+5n1191100 0.1 101866
02:00+4n1296100 0.4 1017197
05:00+3nnw1196100 0.1 101731
08:00+5nne1288100 0.1 1016274
11:00+9ne1363100 0.1 10151212
14:00+9ene2370100 0.8 10141143
17:00+8e227993 1.1 1013709
20:00+5e129790 1.8 101478
20 april, tue
tue2023:00+5se119799 0.0 101553
02:00+5s1198100 0.1 101480
05:00+5ssw0097100 0.0 101449
08:00+6se009298 0.1 1014260
11:00+9ssw1175100 0.2 1014824
14:00+11ssw2263100 0.8 10131100
17:00+11ssw1270100 1.6 1013911
20:00+7ene1190100 3.3 101510
21 april, wed
wed2123:00+7n0198100 4.4 101633
02:00+6wnw119576 5.6 101719
05:00+5wnw119520 0.1 101725
08:00+7wsw129039 0.1 1018203
11:00+11sw226763 0.4 10181149
14:00+13wsw235474 1.0 10171529
17:00+13sw45568 0.2 10161271
20:00+7wsw24843 0.2 1018101